Location: Whispering Pines Observatory
(39.4020°N, 104.7430°W)
Time: 03:26:05
(UTC-06:00)

MOS 1 Rocket - Visible Passes

Search period start: 31 July 2014 00:00
Search period end: 10 August 2014 00:00
Orbit: 616 x 834 km, 97.5° (Epoch: 30 July)

Date Brightness Start Highest point End Pass type
(mag) Time Alt. Az. Time Alt. Az. Time Alt. Az.
31 Jul 5.2 21:00:20 10° E 21:02:10 12° ENE 21:04:02 10° NE visible
31 Jul 3.4 22:38:59 51° SSW 22:39:50 62° W 22:44:24 10° NNW visible
01 Aug 3.8 21:50:10 30° ESE 21:51:37 39° ENE 21:55:55 10° N visible
01 Aug 5.3 23:29:32 17° W 23:30:08 18° W 23:33:12 10° NW visible
02 Aug 5.2 21:01:38 10° E 21:03:47 13° ENE 21:05:59 10° NE visible
02 Aug 3.5 22:40:43 50° SW 22:41:29 58° W 22:46:05 10° NNW visible
03 Aug 3.8 21:51:54 33° ESE 21:53:15 42° ENE 21:57:39 10° N visible
03 Aug 5.4 23:31:16 17° W 23:31:48 17° W 23:34:48 10° NW visible
04 Aug 5.2 21:03:04 10° E 21:05:24 14° ENE 21:07:54 10° NNE visible
04 Aug 3.6 22:42:27 49° SW 22:43:08 55° W 22:47:46 10° NNW visible
05 Aug 3.7 21:53:38 36° ESE 21:54:53 45° ENE 21:59:24 10° N visible
05 Aug 5.5 23:33:00 16° W 23:33:29 16° W 23:36:24 10° NW visible
06 Aug 5.1 21:04:49 12° E 21:07:02 16° ENE 21:09:48 10° NNE visible
06 Aug 3.7 22:44:11 48° SW 22:44:48 52° W 22:49:28 10° NNW visible
07 Aug 3.6 21:55:22 39° ESE 21:56:31 48° ENE 22:01:09 10° N visible
07 Aug 5.6 23:34:44 15° W 23:35:10 16° W 23:37:59 10° NW visible
08 Aug 5.1 21:06:33 13° E 21:08:40 17° ENE 21:11:40 10° NNE visible
08 Aug 3.8 22:45:55 47° WSW 22:46:27 49° W 22:51:09 10° NNW visible
09 Aug 3.6 21:57:07 42° ESE 21:58:10 51° ENE 22:02:54 10° N visible
09 Aug 5.6 23:36:29 15° W 23:36:51 15° W 23:39:34 10° NW visible
